Find Starlink 35687

NORAD ID: 66524 Int'l Des: 2025-265 Owner: SPXS Country: US Constellation: starlink operational
LEOCIRCULAR

Aktuelle Ansicht

3D-Globus wird geladen...

Über Starlink 35687

Beschreibung wird geladen...

Nächste Überflüge

Passes for default location (London). Set your location on the main map for personalized predictions.

Höhenverlauf

Loading altitude history...

Zweizeiliger Elementsatz

1 66524U 25265J 26150.12598705 .00023150 00000-0 84762-3 0 9995
2 66524 42.9971 178.4086 0001261 189.5076 170.5751 15.27600262 29566
Epoch: 30. Mai 2026 • Age: 11 hours

Aktueller Status

Höhe 485.7 km
Geschwindigkeit 7.63 km/s
Subsatellitenpunkt 39.33°N, 134.01°E
Startdatum 19. Nov. 2025
Alter 0.5 years
Typ internet

Technische Details

Klassifizierung Payload
Masse 575.00 kg
Trockenmasse 530.00 kg
Gesamtmasse 575.00 kg
Länge 0.30 m
Durchmesser 4.10 m
Spannweite 29.00 m
Form Box + pan
Hersteller SPXS
Bus-Typ Starlink V2MO
Phasenstatus In Orbit
Besitzer/Staat SPXS/US

Most Searched